Wind_Speed
39 40 40 41 40 41 42 43 43 43 43 44 44 44 44 43 43 43 42 41 40 40 40 40 41 41 41 40 39 39 39 40 42 43 45 45 45 46 45 45 44 43 43 42 42 41 41 42 42 44 45 45 46 45 43 42 40 38 37 35 33 32 31 31 32 32 32 32 31 31 30 29 28 27 26 25 24 23 23 22 22 22 23 23 22 22
39 39 39 39 40 40 42 43 44 44 44 44 44 44 44 44 44 43 43 42 42 42 42 42 42 43 43 43 42 41 41 41 43 44 46 46 47 47 47 46 45 44 44 44 43 43 43 43 43 44 45 46 46 44 42 40 38 37 36 34 32 31 31 31 32 32 32 32 31 31 30 29 28 27 26 25 24 24 23 23 23 23 24 24 24 23
39 38 37 38 39 40 41 42 43 44 44 44 44 44 44 44 44 44 44 44 43 43 43 43 44 45 46 45 45 44 43 43 44 46 47 47 48 48 48 48 47 46 45 45 45 44 44 44 44 45 45 45 44 43 40 38 37 36 35 33 31 30 31 32 32 32 32 32 31 30 29 28 27 26 25 25 24 24 24 24 23 23 23 23 23 23
38 37 37 38 39 41 42 42 43 44 44 44 44 44 44 44 44 44 44 44 44 44 44 44 45 46 47 48 47 46 45 45 46 47 49 49 49 48 49 49 48 48 47 46 46 45 44 44 44 45 45 44 43 40 38 37 36 36 34 32 30 30 31 32 32 32 32 32 31 30 29 27 26 26 25 25 24 24 24 23 23 23 22 22 22 22
37 37 37 38 39 42 44 44 44 43 43 43 43 43 44 44 44 44 44 44 44 44 45 45 46 47 49 49 49 49 48 47 48 49 50 50 49 49 49 49 49 48 47 47 46 45 44 44 45 45 45 43 41 39 38 37 36 35 33 30 29 30 31 32 33 33 32 32 31 29 28 27 26 25 25 24 24 24 23 23 22 22 21 21 21 21
39 38 38 39 40 41 44 44 43 43 42 42 43 43 44 44 44 44 44 44 44 45 45 46 47 48 49 50 51 51 50 50 50 51 52 51 50 49 49 48 48 47 48 48 48 46 45 45 46 46 45 43 40 38 37 37 36 34 31 29 28 30 31 32 33 33 32 31 30 28 27 26 25 25 24 24 24 23 23 22 22 21 21 21 21 20
41 40 39 41 42 43 44 44 43 42 41 40 41 42 43 44 45 45 45 45 45 45 46 46 47 49 50 51 51 52 52 52 53 53 53 52 51 50 49 48 47 48 49 49 49 47 45 45 46 46 45 42 40 39 38 36 35 32 30 28 28 30 32 33 33 33 32 31 29 27 26 25 24 24 24 24 23 23 23 22 22 21 21 21 21 21
44 43 42 42 44 46 46 46 45 43 41 39 38 39 41 43 45 46 46 46 46 47 47 47 48 50 51 52 52 53 53 54 54 54 54 53 53 51 49 48 48 49 50 50 49 47 46 46 47 46 44 42 40 39 37 36 33 31 28 27 28 30 32 33 33 33 32 30 28 26 25 24 24 24 24 23 23 23 22 22 22 21 21 21 21 21
44 45 45 44 44 45 47 48 48 47 43 40 38 38 39 42 44 46 46 47 48 48 49 49 50 51 52 53 53 54 54 54 54 54 54 54 54 53 51 49 49 49 50 50 49 47 46 47 47 46 44 42 40 38 37 34 32 29 27 27 29 31 32 33 33 32 31 29 27 25 24 24 24 24 24 23 23 22 22 22 22 21 21 21 21 21
44 45 46 46 45 46 48 49 51 51 48 43 41 40 40 41 43 44 45 47 48 49 50 50 51 52 53 53 54 55 55 55 54 53 53 53 53 53 52 51 50 51 51 50 49 48 47 47 47 46 43 41 39 37 35 33 30 28 26 27 29 31 32 32 32 31 29 27 26 24 24 24 24 24 23 23 22 22 22 22 21 21 21 21 21 21
42 44 46 45 44 44 47 49 51 52 50 45 43 42 42 43 43 44 45 47 48 49 50 50 51 52 53 53 54 54 55 54 53 52 52 51 52 52 52 51 51 51 51 51 50 49 48 48 48 45 42 40 38 36 33 31 29 27 26 27 29 31 31 31 31 30 28 26 25 24 24 24 24 23 23 23 22 22 21 21 21 21 21 21 21 20
44 44 46 45 43 41 41 42 45 47 47 44 42 42 43 44 45 45 46 48 49 50 50 51 51 51 52 52 53 53 54 53 52 52 51 51 50 50 51 51 51 51 51 52 51 51 50 49 47 44 41 38 36 34 32 30 27 25 26 27 29 31 31 31 30 28 26 25 24 23 24 23 23 23 23 22 22 21 21 21 21 21 20 20 20 20
46 45 46 47 47 44 40 38 38 40 42 42 41 42 44 45 46 47 47 49 50 51 51 52 52 52 52 52 52 52 53 53 52 52 50 50 50 51 52 52 52 52 52 53 53 52 50 48 46 42 39 37 34 32 30 27 25 25 25 28 29 30 30 29 28 26 25 24 23 23 23 23 23 23 22 22 22 21 21 21 20 20 20 20 19 19
46 45 45 46 47 47 43 39 37 37 39 40 43 45 47 47 47 47 48 49 50 51 52 52 52 53 53 52 52 52 52 52 51 51 50 50 51 52 52 52 52 52 53 54 53 52 50 48 44 41 38 35 33 30 28 25 24 24 26 28 30 30 29 28 27 25 24 23 23 23 23 23 23 22 22 22 21 21 21 20 20 20 19 19 19 19
41 40 39 40 43 45 44 40 37 36 37 39 42 44 45 46 47 48 48 49 50 51 50 51 51 52 53 53 53 52 51 51 50 50 50 50 51 52 52 52 51 52 53 53 52 51 49 46 43 40 36 33 31 28 26 24 24 25 26 28 29 29 28 27 25 24 23 23 23 23 23 22 22 22 21 21 21 21 21 20 20 19 19 19 19 19
39 37 36 37 40 42 44 41 38 35 35 36 38 40 42 44 45 47 47 48 49 48 47 46 47 48 50 52 53 52 51 50 50 50 49 50 51 51 51 51 51 52 52 51 50 49 47 44 41 37 34 31 28 26 24 24 24 25 27 29 29 28 27 26 24 24 23 23 23 23 22 22 21 21 21 21 21 21 20 20 20 20 20 20 20 20
40 38 38 39 40 42 43 43 40 37 36 35 36 37 39 42 44 45 46 46 46 45 44 44 42 41 43 48 51 52 51 50 50 50 49 49 50 51 51 50 51 51 51 49 48 47 45 41 38 34 31 29 27 25 24 24 24 26 27 28 28 27 26 25 24 23 23 23 23 22 21 21 21 20 20 20 20 20 20 20 20 20 20 20 20 20
40 39 39 39 40 41 42 42 42 42 41 38 37 37 38 40 42 43 44 44 44 43 43 44 43 41 39 42 48 53 53 50 49 49 48 48 49 50 51 50 50 50 49 47 46 45 42 38 34 32 30 28 26 25 24 24 25 26 27 28 27 26 25 24 24 23 23 23 22 21 20 20 20 20 20 20 20 19 19 19 19 20 20 20 20 20
41 41 40 41 41 41 40 39 40 41 42 41 38 37 38 39 40 41 42 44 44 45 45 46 46 46 45 46 50 53 53 50 48 47 47 48 49 50 50 50 49 48 47 46 45 42 38 34 32 30 28 27 26 25 24 24 25 26 27 27 26 25 24 24 24 23 23 22 21 20 19 19 19 19 19 19 19 19 19 19 19 19 19 19 19 19
41 42 41 42 43 43 41 39 38 38 39 39 38 36 37 37 38 39 41 43 45 47 48 48 49 50 51 50 51 52 51 49 46 45 46 47 48 50 50 50 49 48 47 45 43 39 34 32 30 29 28 26 25 24 24 24 26 26 26 26 25 24 24 24 23 23 21 20 19 19 18 18 18 18 19 19 18 18 18 18 18 18 18 18 18 19
41 41 41 42 42 42 42 40 39 39 40 40 40 39 38 37 37 39 41 43 44 46 48 49 51 52 53 51 50 50 50 47 45 44 45 45 47 49 50 49 48 47 46 43 40 35 31 30 29 28 27 25 24 23 24 25 26 26 25 25 24 24 24 23 22 21 20 19 18 18 18 18 18 18 18 18 18 17 17 17 17 17 18 18 18 18
40 41 41 41 41 41 42 42 41 41 41 41 40 39 38 38 38 39 41 42 43 45 47 50 51 52 52 50 50 50 49 47 45 44 43 43 45 47 49 48 47 46 43 40 36 32 29 29 28 27 25 24 23 23 24 25 25 25 24 24 24 24 23 23 21 20 19 18 18 18 18 18 18 18 18 17 17 17 17 17 17 17 18 18 18 18
40 40 41 41 41 41 42 41 41 41 41 41 41 42 41 41 41 41 42 43 45 46 48 49 50 51 51 50 49 49 48 46 45 44 42 41 43 45 47 46 44 42 40 36 32 29 28 28 27 26 24 23 23 23 24 24 24 24 23 23 23 23 23 21 20 19 18 18 18 18 18 18 18 17 17 17 17 17 17 17 17 18 18 18 18 18
40 41 41 41 41 41 41 40 39 39 40 40 41 41 42 42 42 43 43 44 45 46 46 47 49 50 49 49 48 47 46 45 44 42 40 40 42 44 44 43 41 38 36 32 29 27 27 26 25 24 22 22 23 23 24 24 23 23 23 23 23 23 22 20 19 18 18 18 18 18 18 18 18 18 17 17 17 17 17 18 18 18 18 19 19 19
41 41 40 40 40 40 39 39 38 38 38 39 39 40 40 41 41 41 41 41 42 43 45 46 47 47 47 47 46 46 46 45 44 42 39 39 40 41 41 39 36 34 32 29 27 26 25 25 24 23 22 22 23 23 23 23 23 23 23 23 23 22 21 20 18 18 18 18 18 18 18 18 18 18 18 18 18 18 18 18 19 19 19 19 19 20
41 40 39 39 38 38 38 38 37 37 37 38 39 40 40 40 40 40 39 40 41 43 44 45 45 46 47 47 46 46 45 45 44 42 39 38 38 38 36 33 31 29 28 27 25 25 25 24 23 22 22 22 22 22 22 22 22 23 23 23 22 21 20 19 18 18 18 18 18 19 19 19 19 18 18 18 18 18 19 19 19 19 19 19 19 20
39 38 38 38 38 38 38 38 37 36 35 36 38 40 41 41 40 38 38 39 41 43 43 44 44 45 46 45 45 45 46 44 43 42 39 36 34 33 31 28 27 26 26 25 25 24 24 23 22 22 22 22 22 22 22 22 22 22 22 22 21 21 20 19 18 18 18 19 19 19 19 19 19 19 19 19 19 19 19 19 18 18 18 19 19 20
38 38 38 38 39 39 39 38 37 35 34 35 37 39 40 40 39 38 39 40 41 42 43 44 44 44 43 43 44 45 44 43 41 40 38 33 30 29 27 26 25 25 25 25 24 23 22 22 22 22 22 21 21 21 22 22 22 22 22 21 21 20 20 19 19 19 19 19 20 20 20 20 19 19 19 19 19 19 18 18 18 18 18 19 20 21
38 38 38 38 38 38 38 37 36 35 34 35 37 38 38 37 37 37 38 39 40 41 42 44 44 44 43 42 42 41 40 39 39 37 34 30 28 26 25 25 25 25 25 24 23 22 22 22 22 22 22 21 21 22 22 22 22 22 21 21 20 20 20 19 19 19 20 20 20 20 20 20 20 20 20 19 19 19 18 18 18 18 19 20 21 22
38 38 37 37 37 37 37 36 35 35 34 35 35 36 35 34 34 34 35 36 38 40 41 43 44 43 42 39 36 34 34 37 37 35 31 29 28 27 26 26 26 26 25 24 22 22 22 23 23 22 22 22 22 23 23 22 21 20 20 20 20 20 20 20 20 20 21 21 21 21 21 21 21 20 20 20 19 19 19 19 19 19 20 21 22 22
38 37 36 36 36 36 36 36 35 34 34 34 35 35 35 35 34 34 34 35 37 39 40 42 43 44 43 39 34 31 33 37 37 34 31 29 28 27 27 27 26 26 25 24 23 23 23 23 23 23 22 22 23 23 22 21 20 19 18 18 19 19 20 20 21 21 22 22 22 22 22 21 21 21 21 20 20 20 20 19 20 20 21 22 23 23
37 36 36 35 35 36 36 35 35 34 34 34 35 35 35 35 35 35 36 36 37 38 40 42 43 44 44 42 39 36 37 38 37 33 31 29 27 27 26 26 26 25 24 23 22 21 20 20 22 23 22 22 22 22 20 19 18 18 17 18 18 19 20 20 21 22 22 22 22 22 22 22 22 22 21 21 21 21 21 20 20 21 22 23 23 23
36 36 36 36 36 35 35 35 35 34 34 35 35 35 35 35 35 35 35 36 37 39 40 42 43 43 43 42 40 39 38 37 35 32 30 29 28 27 26 26 25 25 23 22 22 21 19 19 20 21 21 21 21 20 18 18 17 17 17 18 18 19 20 20 21 21 22 22 22 22 22 22 22 22 22 22 22 22 22 22 22 22 22 23 23 23
34 34 34 35 36 36 35 35 35 35 35 35 36 36 35 34 34 34 35 36 37 39 41 41 42 42 41 39 37 36 35 33 32 30 29 28 27 26 26 25 25 24 24 24 24 24 23 22 19 18 18 18 18 18 17 17 17 16 17 18 18 19 19 20 20 21 21 21 21 21 21 22 22 23 23 23 23 23 23 22 22 22 22 23 23 23
31 31 32 34 35 36 36 36 36 36 36 37 36 36 35 34 34 34 35 36 38 39 40 39 39 39 38 37 36 35 33 30 28 28 28 27 26 25 25 24 24 24 24 24 25 25 25 24 21 17 15 16 17 17 17 16 16 16 17 17 18 18 18 19 19 19 19 19 20 20 21 21 22 23 23 23 23 22 22 22 22 22 22 22 22 22
31 31 31 32 34 36 37 38 38 37 37 37 37 36 35 34 34 34 35 37 38 38 38 37 36 35 33 32 32 32 30 26 24 25 26 25 24 24 24 24 23 23 23 24 24 25 25 23 21 18 15 15 16 17 16 16 16 16 16 17 17 17 17 17 17 18 18 18 19 20 20 21 21 22 22 22 22 21 21 21 21 21 21 21 21 22
31 31 31 32 34 36 38 38 38 38 37 37 37 36 35 34 34 34 35 36 36 36 36 35 34 32 30 27 25 23 22 20 20 22 23 23 22 22 22 21 21 21 21 22 22 23 23 22 20 18 17 16 16 17 16 16 15 16 16 16 16 16 16 16 16 16 17 17 18 19 19 20 20 20 20 20 20 20 20 20 20 20 21 21 21 21
32 32 32 33 34 36 37 38 37 37 37 36 36 35 35 34 34 34 34 34 34 33 33 32 31 29 26 23 19 17 16 16 17 18 20 20 20 20 19 19 18 17 17 18 19 20 20 20 20 19 18 17 16 15 15 15 15 15 16 15 15 14 14 14 15 15 16 16 17 17 18 18 18 19 19 19 19 19 19 19 19 20 20 21 21 21
32 32 33 33 34 35 36 36 36 36 35 35 34 34 33 32 32 32 31 31 30 30 29 28 27 25 22 21 19 18 17 17 17 17 18 18 18 18 16 15 15 15 16 16 17 17 17 17 17 17 16 15 14 14 13 13 13 14 14 13 13 12 12 13 13 14 15 15 16 16 16 17 17 17 18 18 18 18 18 18 19 19 19 20 21 21
31 32 32 33 33 33 34 34 34 34 34 33 32 32 31 30 29 29 28 27 27 26 25 24 23 23 22 22 22 21 20 19 18 17 17 17 16 16 14 14 14 15 16 17 16 16 15 15 14 13 13 12 12 12 11 11 11 11 11 11 11 11 11 12 13 13 14 14 14 15 15 15 16 16 17 17 17 18 18 18 18 19 19 20 20 21
31 31 32 32 32 33 33 33 33 33 32 32 31 30 29 29 28 27 26 25 24 23 23 23 23 24 24 24 23 21 20 18 17 17 16 16 16 15 14 15 15 16 16 15 15 14 13 12 12 11 11 11 11 10 10 10 10 10 9 9 9 9 10 11 11 12 12 13 13 14 14 14 15 15 16 16 17 17 17 18 18 19 20 20 21 21
30 31 31 32 32 32 33 33 32 31 31 30 29 28 27 27 26 25 25 24 23 23 23 24 24 24 24 22 21 19 18 17 16 16 16 15 15 15 15 16 16 16 15 13 12 12 11 11 10 10 10 10 10 10 9 9 9 8 8 8 9 9 9 9 10 10 11 11 12 12 13 14 14 15 16 16 17 17 17 18 19 19 20 20 20 20
30 31 31 31 32 32 32 32 31 30 29 28 26 25 25 24 24 24 24 24 24 25 25 24 24 24 23 21 19 18 17 16 16 16 16 15 16 16 16 16 15 14 13 12 11 10 10 10 10 10 10 10 10 9 9 8 7 7 7 8 9 8 7 8 8 9 10 10 11 11 12 13 14 15 16 17 17 17 17 18 18 19 19 19 19 19
30 30 30 31 31 32 31 30 30 28 27 25 24 24 24 23 23 24 24 25 25 25 25 24 24 23 22 20 19 18 17 16 16 16 16 16 16 16 16 15 13 12 11 10 10 9 9 10 10 10 10 10 9 8 7 7 6 6 7 8 9 9 8 8 8 8 9 9 10 11 12 13 14 15 16 17 17 17 17 18 18 18 18 19 19 19
30 30 30 30 30 30 29 28 27 26 25 24 23 23 23 23 24 24 24 25 25 25 24 23 22 21 20 19 19 18 18 17 16 16 16 16 16 15 14 13 11 10 10 9 9 9 9 9 10 9 9 8 8 7 7 7 7 7 7 8 9 9 9 9 8 8 8 9 10 10 12 13 15 16 16 17 17 17 17 18 18 18 18 18 18 18
31 30 30 29 29 28 27 26 25 24 23 23 23 23 24 23 23 24 24 24 24 24 22 21 20 20 19 19 19 18 18 17 16 15 15 15 14 13 12 10 10 9 9 8 8 9 9 9 9 8 8 8 7 7 7 7 7 8 8 8 9 9 8 8 8 8 9 9 10 11 12 14 15 16 16 17 17 18 18 18 18 18 17 17 17 17
30 30 29 28 28 26 25 24 23 23 23 23 23 23 23 23 23 23 23 23 22 22 21 19 18 18 18 18 18 17 16 15 15 14 14 13 12 11 9 9 8 8 8 8 8 8 8 8 8 8 7 7 7 6 6 7 7 8 8 9 9 8 8 7 7 8 9 10 10 11 13 14 15 16 17 17 18 18 18 17 17 17 17 17 17 17
29 29 28 27 26 25 24 23 23 23 23 24 24 23 22 22 22 22 21 21 20 19 18 18 17 17 17 17 16 14 13 13 13 12 12 11 10 9 8 8 7 7 7 7 7 8 8 7 7 7 7 7 7 6 5 6 7 7 8 8 8 8 8 7 7 8 9 10 11 12 13 14 15 16 17 17 18 18 17 17 17 17 17 17 17 17
28 27 27 26 25 24 23 23 23 23 24 24 24 23 22 22 22 21 20 19 18 17 17 17 17 17 17 16 14 13 12 11 11 10 9 9 8 8 8 7 7 7 7 7 7 7 7 7 7 7 7 7 7 6 5 5 6 7 7 8 8 8 8 8 8 8 9 10 11 12 14 15 15 16 16 17 17 17 17 17 17 17 17 17 17 17
28 26 25 25 24 23 23 23 23 23 24 24 23 23 23 23 22 21 19 17 16 16 16 16 16 16 15 14 13 13 12 11 10 9 8 8 7 8 8 7 7 7 6 6 6 6 5 5 5 6 7 7 6 5 5 5 6 7 7 7 7 8 8 8 8 9 10 11 12 13 14 14 15 15 16 17 18 18 19 19 19 18 17 17 16 16
27 25 24 24 23 23 23 23 23 23 24 23 23 23 24 24 22 20 18 16 16 16 16 16 15 14 13 13 12 12 11 10 9 8 8 8 8 8 7 7 7 6 4 3 3 3 3 4 4 5 6 6 5 4 5 5 6 7 7 7 7 8 8 8 9 9 10 11 12 13 14 14 15 15 16 17 18 20 20 21 21 19 18 17 15 15
Wind_Direction
263 263 264 264 263 262 261 261 261 260 260 261 263 264 265 264 263 262 262 262 261 260 258 256 253 249 247 246 247 248 247 244 242 241 241 240 240 241 242 242 242 243 244 245 246 247 248 248 249 249 249 250 251 252 254 254 255 257 259 261 264 267 268 270 271 272 273 275 275 276 275 274 273 271 268 266 263 260 258 256 254 252 249 247 246 246
263 263 263 264 263 262 261 262 261 261 260 261 263 264 265 263 262 261 261 261 261 260 259 257 254 251 248 246 245 245 245 243 242 242 241 240 240 240 241 242 242 243 244 245 245 246 246 246 247 247 248 249 251 252 253 254 254 256 258 261 264 266 268 270 271 272 273 274 275 275 274 273 271 268 266 263 261 260 258 257 255 253 251 249 249 248
263 263 262 263 262 262 261 262 262 262 262 263 264 265 265 264 263 261 260 260 260 260 260 258 255 251 249 248 246 245 243 242 242 242 242 241 240 240 241 242 242 243 243 244 244 244 245 246 246 246 248 250 251 252 252 252 253 254 257 260 263 266 268 269 271 272 273 275 275 274 273 271 268 266 264 262 261 260 260 259 258 256 254 252 251 250
262 261 261 262 262 262 261 261 262 262 263 264 265 266 266 264 263 263 262 261 260 260 261 260 257 253 250 249 248 247 245 244 244 244 244 242 240 240 240 241 242 242 242 242 243 244 245 246 246 247 248 250 251 250 250 250 251 253 256 259 262 265 267 269 271 272 274 275 274 273 271 269 266 264 262 261 261 261 261 260 259 257 256 254 253 251
264 261 260 261 262 262 262 262 261 261 262 262 263 263 263 263 263 263 263 262 260 260 261 261 259 256 254 252 251 250 248 247 247 246 245 243 242 241 241 241 241 241 240 240 242 244 246 247 248 249 250 251 251 250 249 249 250 253 255 259 263 266 267 269 271 272 274 274 274 272 269 266 264 262 261 261 261 262 261 260 259 258 256 255 254 252
269 263 261 260 260 261 262 262 261 260 259 259 259 260 260 261 262 262 261 260 260 260 261 261 261 260 258 256 254 252 251 250 249 247 245 244 243 243 243 242 241 240 240 241 242 244 247 249 250 251 251 251 251 250 248 249 250 252 255 260 264 266 268 269 271 273 274 274 272 269 266 264 261 260 260 260 261 262 261 260 259 257 256 255 255 253
274 268 263 260 260 260 261 261 260 258 256 255 256 257 258 259 259 259 259 260 260 260 261 262 262 261 260 259 257 255 252 251 249 248 247 246 246 245 244 242 239 239 242 243 244 246 247 249 251 251 251 251 251 250 248 248 249 252 255 260 264 266 268 269 271 273 273 272 270 267 264 261 260 259 259 260 261 261 261 260 258 257 256 255 255 254
275 272 267 262 260 260 260 259 259 258 255 253 253 254 256 257 258 258 259 260 261 261 261 262 262 261 260 259 258 256 253 251 250 249 249 249 249 247 245 242 239 240 242 244 246 246 248 250 251 251 250 250 249 248 247 248 249 251 256 261 264 265 267 269 271 272 272 270 267 264 261 260 258 258 259 260 260 260 260 259 258 257 256 256 255 255
274 273 269 264 260 259 259 259 260 259 257 254 252 252 253 254 255 257 258 259 260 260 260 260 260 260 259 259 257 256 254 252 251 251 251 251 251 249 246 242 240 240 242 244 245 245 248 251 251 250 249 248 248 247 247 247 249 251 256 260 263 264 266 268 270 271 270 267 264 261 259 258 258 258 259 260 260 260 260 259 259 258 257 256 256 256
273 273 271 266 262 258 258 259 261 262 261 257 255 253 253 252 253 255 256 257 259 260 260 259 259 259 259 258 257 255 254 252 252 252 253 253 252 250 247 243 241 241 242 243 243 244 247 250 251 250 248 247 247 247 246 247 249 252 256 259 261 263 265 268 269 268 266 263 260 258 257 257 257 258 259 260 260 260 259 259 259 258 257 257 256 256
274 273 272 268 264 259 257 258 261 263 263 259 257 257 257 254 253 253 253 255 257 259 260 260 260 259 258 257 257 255 254 253 252 252 253 253 251 249 246 243 242 242 242 243 243 244 246 248 249 249 247 246 246 246 246 247 248 252 256 258 260 262 265 266 267 265 262 259 256 255 255 255 257 258 259 260 260 259 259 259 259 258 258 258 257 256
276 274 273 271 267 263 259 258 258 259 260 259 259 258 256 255 254 253 252 253 256 258 259 261 262 261 260 258 257 256 255 254 253 253 253 252 249 245 242 240 240 241 242 242 243 244 246 247 248 247 246 246 246 245 245 246 248 252 256 258 260 262 264 265 264 261 258 255 254 253 254 255 256 258 258 259 259 259 258 258 258 258 258 258 258 257
278 275 273 272 271 268 265 262 259 255 254 254 254 253 253 254 254 253 252 253 255 258 259 260 261 261 261 259 257 256 256 256 255 255 253 250 247 242 238 237 238 240 242 242 243 244 246 247 247 246 246 245 244 243 243 245 249 252 256 258 260 262 263 262 260 257 255 253 252 252 253 255 256 257 257 258 257 257 256 256 256 257 258 258 259 259
278 276 273 272 272 271 269 266 261 256 251 250 251 253 255 256 255 253 252 252 255 257 257 256 256 257 259 258 257 256 256 255 255 254 252 249 245 242 238 237 238 242 243 243 244 245 247 247 246 245 244 242 241 240 241 245 248 252 255 258 260 261 260 259 257 254 252 251 251 252 253 254 255 256 256 256 256 255 254 253 253 254 255 257 258 259
276 275 272 270 270 270 269 266 263 259 255 253 253 254 255 255 254 253 251 251 252 254 251 250 250 253 254 255 255 255 254 254 253 251 249 248 246 243 239 238 240 243 244 243 244 245 247 246 245 243 241 239 237 238 240 244 248 252 255 257 259 259 258 256 253 251 250 250 250 252 253 254 254 255 255 254 254 253 252 250 250 250 251 253 255 257
277 275 272 270 270 270 269 267 264 260 259 257 255 255 256 253 252 251 249 249 249 248 244 242 242 245 249 252 254 253 252 251 250 249 248 247 246 245 241 238 238 240 242 242 243 244 245 244 242 239 236 234 234 236 240 244 248 251 254 256 256 256 254 252 250 249 248 249 250 251 252 253 253 253 253 253 252 251 250 248 247 248 249 251 253 255
279 277 275 273 272 271 271 270 267 264 263 262 261 259 256 254 252 250 248 247 245 241 238 237 236 237 242 247 250 252 251 249 248 248 247 245 246 246 243 239 237 238 241 241 242 242 241 239 237 234 232 231 233 236 240 244 247 250 252 254 254 253 251 249 248 247 247 248 250 251 252 252 252 252 252 251 251 250 249 247 247 247 249 251 253 254
279 277 276 275 273 273 272 271 270 269 267 266 264 263 261 258 255 251 247 244 240 237 236 237 236 236 238 242 247 252 253 248 246 246 245 244 245 246 244 240 238 238 240 241 241 241 238 235 232 229 228 230 233 237 241 244 247 249 250 251 250 250 248 246 246 246 247 248 249 251 252 252 251 251 250 250 249 249 248 247 248 249 250 252 254 255
280 278 277 275 275 274 272 271 269 268 268 267 266 265 263 260 256 252 247 244 242 240 239 238 239 240 241 243 249 254 256 252 247 244 242 242 244 245 244 240 237 237 238 239 239 238 234 230 228 227 228 230 234 237 241 243 245 247 248 248 247 246 245 244 244 245 246 248 250 250 251 250 250 249 248 248 248 247 247 248 248 250 252 253 255 256
281 279 277 277 276 274 273 271 270 269 269 269 270 269 265 261 256 252 249 246 245 244 243 241 241 242 244 246 249 253 255 253 248 242 240 240 242 243 243 240 236 235 236 237 237 234 230 226 224 225 227 230 234 237 240 242 244 244 245 245 244 243 242 242 243 244 246 248 249 250 249 249 248 247 246 246 246 246 246 247 249 251 253 255 256 257
283 281 280 279 278 275 273 272 271 270 270 271 271 270 266 262 257 252 250 249 247 245 244 242 243 245 247 245 246 249 253 252 247 242 240 238 238 240 242 239 236 234 234 235 234 230 225 223 223 225 228 230 233 236 238 240 241 241 242 242 241 241 241 241 243 245 246 247 248 248 247 246 245 244 244 244 245 245 246 247 250 252 255 257 258 259
285 283 283 284 283 281 280 278 275 272 271 270 268 266 263 261 258 255 254 253 251 249 247 246 246 247 246 243 243 247 250 251 249 245 240 232 231 235 240 238 235 232 232 232 230 226 221 221 223 225 228 230 232 234 236 237 238 239 239 239 239 239 240 241 243 244 245 245 245 245 244 243 242 241 241 242 243 245 246 249 251 254 256 259 260 261
289 288 289 290 290 290 289 288 284 280 276 272 268 266 264 264 263 261 260 260 259 257 255 253 250 247 243 241 241 243 247 249 250 246 237 227 227 234 239 237 233 230 230 229 225 221 219 220 223 226 227 229 231 233 235 236 237 237 237 237 237 238 239 240 242 243 243 242 241 241 240 240 239 239 240 241 243 246 248 250 253 256 257 260 261 262
291 292 292 292 291 291 291 290 289 287 283 278 273 269 267 267 267 268 268 267 265 261 257 252 247 242 238 237 237 239 242 245 245 241 233 228 229 235 238 236 232 228 227 224 219 216 217 221 223 225 226 227 229 232 234 235 235 235 235 235 235 236 238 240 240 240 239 238 237 237 237 237 237 238 239 241 244 247 249 252 254 256 258 259 261 261
290 290 290 291 291 290 290 289 288 286 285 282 277 272 269 269 270 270 270 268 263 257 251 244 238 234 234 234 234 236 239 242 241 237 231 228 229 233 237 236 232 226 222 217 214 214 218 221 223 224 224 226 229 231 233 234 234 233 233 233 234 235 237 239 238 237 236 235 234 234 235 236 237 238 240 243 245 248 251 253 255 256 258 259 260 260
287 288 288 290 291 291 290 288 286 285 284 283 279 274 271 271 270 269 267 262 257 252 245 238 233 231 233 233 233 234 238 240 239 236 232 228 226 228 233 233 228 220 215 211 211 214 219 222 223 223 224 226 228 230 232 232 232 231 230 231 233 235 237 237 237 235 233 232 232 233 234 236 238 240 243 246 248 250 253 255 256 257 259 260 260 260
288 288 289 290 291 291 290 288 286 284 284 283 280 276 273 272 270 268 264 260 257 253 245 237 231 230 231 231 231 233 236 236 235 233 230 225 221 221 224 221 215 210 208 209 212 216 220 222 222 223 224 226 228 229 230 229 229 228 228 230 232 234 236 236 235 233 231 231 232 233 235 237 240 243 246 248 251 253 255 257 259 260 261 261 261 261
290 290 290 291 291 291 290 288 287 286 285 283 280 277 274 273 270 267 264 264 262 255 246 238 232 229 228 228 229 231 232 230 228 227 224 217 213 212 211 207 204 204 206 210 214 218 220 222 223 224 225 226 227 227 227 227 226 226 227 229 231 233 234 233 232 231 230 231 232 235 237 240 242 245 247 250 252 254 256 258 259 260 260 260 261 260
291 290 289 289 289 290 290 290 289 287 286 284 280 277 276 274 272 270 270 270 264 255 246 240 234 230 227 226 226 226 225 223 222 220 215 204 201 202 200 200 201 205 209 211 214 217 220 222 223 224 225 225 226 225 225 224 224 224 226 228 230 231 231 231 230 230 230 232 234 236 239 242 244 246 248 250 251 253 254 255 256 256 256 257 257 258
293 291 290 289 290 291 291 291 290 290 288 286 282 279 278 278 277 276 276 273 266 257 249 242 235 230 226 223 220 218 219 220 220 215 204 194 192 195 197 200 204 209 212 211 210 213 219 223 225 225 225 225 225 225 224 223 222 223 224 226 227 228 228 227 227 228 230 232 234 237 240 242 244 246 247 248 249 249 250 250 250 251 252 253 255 256
296 294 293 292 292 292 292 292 291 290 289 288 285 282 280 279 279 279 277 272 267 262 254 245 237 230 227 222 216 214 218 222 220 212 199 191 191 196 200 204 209 214 216 214 210 209 214 222 225 226 225 225 225 225 223 221 221 221 222 224 226 226 227 226 227 228 230 232 235 238 240 242 244 245 245 245 246 246 247 247 246 247 249 251 253 254
299 298 296 295 293 292 292 291 291 290 289 288 285 282 279 279 278 277 274 272 269 264 256 247 239 234 231 228 224 222 224 225 221 211 198 192 195 201 206 209 212 215 218 218 216 214 214 220 225 226 224 223 223 222 220 218 218 219 220 223 225 226 227 228 229 230 232 234 237 239 241 242 243 243 243 243 243 243 244 244 243 244 246 248 251 253
301 301 299 297 295 293 291 290 289 289 288 286 283 281 279 279 279 277 274 271 266 260 252 245 239 234 233 231 229 229 230 229 223 212 201 197 199 205 211 214 215 216 216 216 217 219 220 223 225 225 222 219 217 216 214 213 215 217 220 223 225 227 229 230 232 233 235 237 239 240 241 242 242 242 241 241 241 241 241 241 242 243 244 247 250 252
303 303 302 300 297 294 291 289 288 286 285 283 281 279 279 279 278 276 272 266 260 253 247 242 239 236 232 228 227 228 231 232 226 214 204 201 204 210 214 216 216 215 214 212 213 216 221 225 226 222 215 212 210 208 208 210 214 218 223 225 228 229 230 232 233 235 236 238 239 240 240 241 241 241 241 241 241 241 241 242 242 243 244 246 249 251
305 305 304 302 299 296 292 288 285 283 280 278 277 276 276 276 274 271 265 259 253 247 242 240 239 238 236 233 231 231 232 233 225 212 204 204 208 214 217 218 217 216 213 212 213 215 218 222 223 219 210 206 205 205 207 211 216 221 225 228 230 231 231 232 234 235 236 237 238 239 240 240 241 241 241 241 241 242 242 243 243 243 245 246 248 250
305 305 304 302 300 296 291 286 282 279 276 274 273 272 271 270 267 263 258 252 247 242 238 236 235 235 236 239 240 239 237 231 218 205 202 205 210 215 218 219 218 217 215 215 216 216 216 217 217 216 211 208 207 209 212 215 219 224 227 229 230 231 231 232 233 235 236 238 239 239 239 240 240 240 241 241 241 241 242 242 242 242 242 243 244 246
304 303 302 301 297 292 287 282 278 275 272 271 269 268 265 262 259 256 252 247 243 240 237 234 232 231 232 237 242 242 235 221 205 198 199 204 210 215 218 219 219 219 219 219 218 217 214 212 210 211 211 212 213 215 216 218 221 224 226 227 228 229 229 230 232 234 236 237 238 239 239 239 239 239 239 239 240 240 240 240 240 240 240 240 241 242
304 302 300 297 294 288 283 278 274 272 270 268 266 263 261 257 254 251 248 245 242 239 235 233 230 228 227 228 226 221 211 201 194 193 197 202 207 212 215 218 219 219 219 220 219 215 210 206 205 206 210 213 216 217 217 217 217 219 221 223 224 225 226 229 231 234 235 237 237 238 237 237 237 237 237 237 237 237 238 238 238 239 239 240 240 240
305 301 296 293 289 284 279 275 272 271 269 266 264 261 258 256 253 250 246 243 240 237 233 230 225 220 215 208 201 193 188 186 186 189 193 198 204 207 211 213 214 212 211 211 211 209 207 204 204 207 210 214 217 219 218 216 214 214 216 219 222 225 227 230 233 235 237 237 237 237 236 235 235 235 234 234 234 235 236 236 236 237 238 239 240 242
304 298 293 289 286 283 278 275 273 271 268 266 263 260 256 253 250 247 244 240 236 231 226 220 213 206 199 193 189 185 183 182 183 185 189 194 199 202 203 203 203 202 201 200 200 202 204 206 208 211 215 219 220 220 219 217 215 215 217 219 220 223 229 232 235 236 237 236 236 234 234 233 233 233 233 232 233 233 233 234 234 235 236 238 240 241
300 295 291 288 286 284 280 277 274 271 267 263 259 255 251 247 244 241 237 233 226 219 212 205 198 193 189 187 185 183 181 180 182 184 187 191 194 196 196 195 195 196 196 196 197 200 204 209 213 216 220 222 222 221 220 219 220 221 223 226 227 229 231 232 233 233 233 233 232 231 230 230 231 231 232 232 232 233 233 234 234 235 237 239 241 243
297 293 290 289 287 284 281 278 274 269 264 258 252 247 245 243 239 235 229 220 211 203 198 193 189 185 183 182 182 182 180 180 182 184 187 189 189 190 190 191 192 192 194 197 200 204 209 214 218 222 224 224 223 222 221 222 225 229 233 237 240 240 239 236 233 229 226 226 227 227 227 228 230 231 232 233 233 234 236 237 238 239 241 243 245 247
299 295 293 291 288 285 281 275 269 262 257 250 245 241 240 237 233 228 220 210 201 194 190 187 186 184 182 179 178 179 180 182 184 184 185 185 184 185 186 188 189 191 194 200 206 211 215 219 223 226 227 227 226 225 226 229 234 239 244 246 246 245 241 235 231 228 223 222 224 226 228 230 232 234 236 237 238 239 240 241 243 244 245 247 249 251
302 298 295 292 287 283 276 269 262 256 250 243 238 235 232 229 224 218 211 203 196 191 186 184 185 185 183 179 178 178 180 182 185 186 184 183 182 182 184 185 187 191 197 205 212 218 222 224 226 228 229 230 231 232 235 242 248 252 254 252 249 244 236 229 226 225 222 222 224 227 231 234 237 239 241 243 244 244 245 245 246 248 249 251 253 256
305 299 294 288 283 275 267 261 255 250 244 239 234 229 224 220 215 210 204 199 194 189 185 184 183 181 179 179 180 181 181 182 185 185 184 183 182 182 183 185 189 195 202 209 215 220 225 227 228 229 231 233 237 241 247 253 258 258 256 253 249 245 240 234 229 223 221 220 223 228 233 238 241 244 246 247 247 248 248 248 249 250 251 253 256 259
304 297 289 283 276 268 260 255 250 244 238 233 228 223 219 214 209 204 201 197 193 189 186 185 183 181 180 181 183 184 183 183 182 182 181 180 180 181 183 188 194 200 208 213 218 223 226 228 229 232 236 240 245 250 256 258 257 255 253 250 247 243 238 232 228 224 224 224 226 231 237 242 245 248 249 249 249 248 249 250 252 253 255 258 260 262
300 293 285 278 271 263 256 251 244 237 231 227 222 219 215 210 204 200 198 196 193 189 185 184 183 184 185 186 186 186 184 181 179 177 177 177 179 182 187 195 202 208 213 218 222 226 229 231 234 239 244 248 251 255 258 257 253 249 246 246 245 240 233 227 225 227 231 232 234 238 243 246 249 251 253 253 253 253 253 255 257 260 262 264 266 268
298 290 282 274 266 258 250 244 238 232 226 222 219 215 210 204 199 196 194 193 191 188 184 183 184 187 188 187 186 185 182 177 173 172 173 176 181 189 198 206 212 216 219 222 224 227 230 234 240 247 254 258 261 262 259 253 248 245 243 244 244 239 232 228 228 231 235 238 241 245 248 251 254 256 258 259 260 261 262 263 264 266 267 269 271 272
296 287 278 270 262 253 246 241 235 229 223 219 215 209 203 199 195 193 192 191 189 187 186 187 188 188 187 183 180 176 173 169 167 169 175 183 193 204 211 216 218 220 220 221 223 226 231 238 246 254 261 266 269 267 259 249 245 245 245 245 245 241 236 234 235 238 240 243 247 250 253 255 257 260 264 267 268 269 270 270 270 270 271 272 273 273
294 284 275 266 258 251 244 239 233 226 221 218 212 205 199 195 193 192 191 189 188 190 192 193 192 188 183 177 172 168 164 164 167 175 186 196 207 215 219 220 218 217 216 218 221 225 234 250 260 265 267 271 273 271 263 253 251 251 249 248 247 246 243 241 242 246 249 251 253 255 257 258 260 263 268 272 274 274 274 273 273 273 274 275 274 272
291 282 272 263 255 248 242 236 230 225 220 216 210 204 198 194 191 190 189 189 192 195 198 198 193 186 178 171 167 163 161 165 174 186 198 208 214 218 219 219 217 215 216 223 235 250 269 287 294 286 272 269 271 272 266 261 259 256 252 252 252 252 251 252 254 257 259 260 260 260 260 261 263 265 269 273 275 275 275 274 275 277 279 279 276 271
Height
1342 1341 1342 1342 1342 1342 1340 1339 1339 1339 1338 1338 1338 1339 1339 1340 1340 1341 1341 1341 1342 1342 1342 1342 1342 1342 1342 1342 1343 1344 1344 1344 1344 1343 1343 1343 1344 1345 1345 1345 1345 1345 1346 1346 1347 1347 1347 1348 1349 1349 1350 1351 1351 1352 1353 1354 1354 1355 1355 1355 1355 1355 1354 1354 1354 1354 1354 1353 1353 1352 1352 1352 1352 1352 1352 1352 1352 1352 1352 1352 1352 1352 1352 1352 1352 1353
1339 1338 1338 1338 1338 1337 1336 1335 1335 1335 1334 1334 1334 1335 1336 1336 1337 1337 1338 1338 1338 1338 1338 1339 1339 1339 1339 1339 1339 1340 1340 1341 1340 1340 1339 1339 1340 1340 1341 1341 1341 1342 1342 1342 1342 1343 1343 1344 1345 1346 1346 1347 1347 1348 1349 1350 1351 1352 1352 1352 1352 1352 1352 1352 1352 1351 1351 1351 1350 1350 1349 1349 1349 1349 1349 1349 1349 1349 1349 1349 1349 1349 1349 1350 1350 1350
1337 1336 1335 1335 1335 1334 1332 1331 1331 1331 1331 1331 1331 1331 1332 1332 1332 1333 1334 1334 1334 1335 1335 1335 1335 1335 1336 1336 1336 1336 1337 1337 1337 1336 1336 1336 1336 1336 1336 1337 1337 1337 1338 1338 1338 1339 1340 1341 1341 1342 1342 1343 1344 1345 1346 1347 1348 1348 1349 1348 1348 1348 1349 1349 1348 1348 1348 1348 1347 1347 1347 1346 1346 1346 1346 1346 1346 1346 1347 1347 1347 1347 1347 1347 1347 1347
1334 1332 1331 1331 1331 1330 1328 1328 1328 1327 1327 1327 1327 1328 1328 1328 1328 1329 1330 1330 1331 1331 1331 1332 1332 1332 1332 1332 1332 1332 1333 1333 1333 1332 1332 1332 1332 1332 1332 1332 1333 1333 1334 1334 1335 1336 1337 1338 1338 1339 1339 1339 1340 1342 1342 1343 1344 1345 1345 1345 1345 1345 1346 1346 1346 1346 1345 1345 1344 1344 1343 1343 1343 1343 1343 1343 1343 1344 1344 1344 1344 1344 1344 1344 1345 1345
1330 1328 1327 1328 1327 1326 1324 1324 1325 1324 1324 1324 1324 1324 1324 1324 1324 1325 1325 1326 1327 1327 1327 1328 1328 1328 1328 1328 1328 1329 1329 1329 1329 1328 1328 1328 1329 1330 1330 1330 1330 1330 1330 1331 1332 1333 1334 1335 1336 1336 1336 1337 1337 1338 1339 1340 1341 1341 1342 1342 1342 1342 1343 1343 1343 1343 1342 1342 1342 1341 1341 1341 1340 1340 1341 1341 1341 1341 1341 1341 1342 1342 1342 1342 1342 1343
1327 1325 1324 1324 1323 1322 1321 1321 1321 1322 1321 1321 1320 1320 1320 1320 1320 1321 1322 1322 1322 1323 1323 1324 1324 1324 1324 1324 1324 1325 1325 1325 1325 1324 1324 1325 1326 1327 1328 1328 1328 1328 1327 1327 1327 1329 1330 1331 1332 1332 1333 1334 1335 1335 1336 1336 1337 1337 1338 1338 1338 1339 1340 1340 1340 1340 1339 1339 1339 1338 1338 1338 1338 1338 1338 1338 1338 1339 1339 1339 1339 1339 1339 1340 1340 1340
1323 1322 1322 1321 1319 1318 1318 1317 1317 1318 1318 1317 1316 1316 1316 1316 1316 1317 1317 1318 1318 1319 1320 1320 1320 1320 1320 1320 1320 1321 1321 1321 1321 1321 1322 1322 1323 1324 1325 1326 1326 1326 1325 1325 1324 1324 1326 1327 1328 1329 1330 1331 1332 1332 1332 1333 1333 1334 1334 1335 1335 1336 1337 1337 1337 1337 1337 1336 1336 1335 1335 1335 1335 1335 1336 1336 1336 1336 1336 1337 1337 1337 1337 1337 1337 1338
1320 1319 1319 1317 1316 1314 1314 1314 1314 1314 1314 1313 1312 1312 1312 1312 1312 1312 1313 1314 1315 1315 1316 1316 1316 1316 1316 1316 1316 1316 1316 1316 1317 1317 1318 1319 1320 1321 1322 1322 1322 1322 1322 1322 1321 1321 1322 1323 1324 1325 1327 1328 1329 1329 1329 1330 1330 1331 1331 1331 1332 1333 1334 1334 1334 1334 1334 1333 1333 1332 1332 1332 1332 1333 1333 1333 1333 1334 1334 1334 1334 1334 1334 1335 1335 1335
1317 1316 1315 1314 1313 1311 1310 1309 1309 1310 1310 1310 1310 1310 1309 1309 1308 1309 1310 1310 1310 1311 1311 1311 1311 1311 1312 1312 1312 1312 1312 1312 1312 1313 1314 1315 1316 1317 1318 1318 1319 1319 1319 1319 1319 1319 1320 1321 1322 1322 1324 1325 1326 1326 1326 1327 1327 1327 1327 1328 1329 1330 1331 1331 1331 1331 1331 1331 1330 1330 1330 1330 1330 1330 1331 1331 1331 1331 1331 1332 1332 1332 1332 1332 1332 1333
1315 1313 1312 1310 1309 1308 1306 1304 1304 1306 1307 1307 1306 1307 1307 1306 1305 1305 1306 1305 1305 1306 1307 1307 1307 1307 1307 1307 1307 1307 1307 1307 1308 1309 1310 1311 1312 1313 1314 1314 1314 1315 1316 1316 1316 1316 1317 1317 1318 1319 1321 1322 1322 1323 1323 1324 1324 1324 1324 1325 1327 1327 1328 1328 1328 1328 1328 1328 1327 1327 1327 1327 1328 1328 1328 1328 1329 1329 1329 1329 1329 1329 1330 1330 1330 1331
1311 1310 1309 1307 1306 1305 1303 1301 1301 1302 1302 1303 1303 1303 1304 1303 1302 1302 1302 1301 1302 1302 1302 1302 1302 1302 1303 1303 1303 1303 1303 1303 1304 1305 1306 1307 1307 1309 1309 1310 1310 1311 1312 1313 1313 1313 1313 1313 1314 1316 1318 1319 1319 1320 1321 1321 1321 1321 1321 1322 1324 1325 1325 1326 1326 1326 1326 1325 1325 1325 1325 1325 1326 1326 1326 1326 1326 1326 1327 1327 1327 1327 1327 1327 1328 1328
1308 1307 1306 1305 1303 1302 1300 1298 1298 1298 1298 1299 1300 1300 1299 1299 1299 1299 1298 1297 1297 1298 1298 1298 1298 1298 1299 1299 1299 1299 1299 1299 1300 1301 1302 1302 1304 1304 1305 1305 1306 1307 1308 1309 1309 1309 1309 1310 1311 1313 1314 1316 1316 1317 1318 1318 1318 1318 1319 1320 1321 1322 1322 1323 1323 1323 1323 1323 1323 1323 1323 1323 1323 1323 1323 1324 1324 1324 1324 1324 1324 1325 1325 1325 1326 1326
1304 1304 1302 1301 1300 1299 1298 1297 1296 1294 1294 1294 1295 1294 1293 1293 1294 1294 1293 1292 1293 1293 1294 1294 1294 1294 1294 1295 1295 1295 1295 1296 1296 1297 1297 1298 1299 1300 1300 1301 1302 1303 1304 1305 1305 1306 1306 1307 1308 1310 1311 1312 1313 1314 1314 1314 1315 1315 1316 1318 1319 1319 1320 1320 1320 1320 1320 1320 1320 1321 1321 1321 1321 1321 1321 1321 1321 1322 1322 1322 1322 1322 1323 1323 1323 1324
1300 1300 1298 1297 1296 1295 1295 1295 1293 1291 1289 1289 1289 1288 1288 1289 1290 1290 1289 1288 1288 1288 1289 1289 1289 1289 1290 1291 1291 1291 1291 1292 1292 1293 1293 1294 1295 1295 1296 1296 1297 1298 1300 1300 1301 1302 1303 1304 1306 1307 1308 1309 1310 1311 1311 1311 1312 1312 1314 1315 1316 1317 1317 1317 1317 1317 1317 1317 1318 1318 1318 1318 1319 1319 1319 1319 1319 1319 1319 1320 1320 1320 1321 1321 1321 1322
1297 1296 1295 1293 1292 1291 1291 1292 1290 1288 1286 1286 1285 1285 1286 1286 1286 1286 1285 1284 1284 1285 1286 1285 1285 1285 1285 1286 1286 1287 1287 1288 1289 1289 1289 1289 1290 1291 1292 1292 1293 1294 1295 1296 1297 1298 1300 1301 1302 1304 1305 1306 1307 1307 1308 1308 1309 1310 1312 1313 1314 1314 1314 1315 1315 1315 1315 1315 1316 1316 1316 1316 1316 1316 1316 1317 1317 1317 1317 1317 1318 1318 1318 1319 1319 1319
1294 1293 1292 1290 1288 1287 1287 1287 1287 1286 1285 1284 1283 1283 1283 1282 1282 1281 1281 1281 1281 1282 1282 1281 1281 1281 1282 1282 1282 1283 1284 1284 1285 1285 1285 1285 1286 1287 1288 1289 1289 1290 1291 1292 1293 1295 1297 1298 1299 1301 1302 1303 1303 1304 1305 1305 1306 1307 1309 1310 1311 1312 1312 1312 1312 1312 1312 1313 1313 1313 1313 1314 1314 1314 1314 1314 1314 1314 1315 1315 1316 1316 1316 1317 1317 1317
1291 1290 1288 1287 1285 1284 1283 1283 1283 1283 1283 1283 1282 1281 1280 1279 1278 1278 1277 1277 1278 1278 1277 1277 1278 1278 1278 1278 1278 1279 1279 1280 1281 1281 1282 1282 1282 1283 1284 1285 1285 1286 1287 1288 1290 1292 1293 1295 1296 1298 1299 1300 1300 1301 1302 1302 1303 1305 1307 1307 1308 1309 1309 1309 1309 1310 1310 1310 1311 1311 1311 1311 1311 1311 1311 1312 1312 1312 1312 1313 1313 1313 1314 1314 1315 1315
1288 1287 1285 1284 1282 1281 1281 1280 1279 1279 1280 1280 1280 1278 1277 1276 1276 1275 1275 1275 1275 1275 1274 1274 1274 1274 1274 1273 1273 1273 1275 1276 1277 1277 1278 1278 1279 1279 1281 1281 1282 1282 1283 1285 1286 1288 1290 1292 1293 1295 1296 1297 1297 1298 1299 1300 1301 1302 1304 1305 1306 1306 1306 1306 1307 1307 1307 1308 1308 1308 1308 1308 1308 1309 1309 1309 1309 1310 1310 1311 1311 1311 1312 1312 1312 1313
1284 1283 1282 1281 1280 1279 1278 1277 1277 1276 1276 1277 1277 1276 1275 1274 1273 1273 1272 1272 1272 1272 1271 1270 1270 1269 1270 1269 1268 1269 1271 1272 1273 1274 1275 1275 1275 1276 1277 1277 1278 1279 1280 1281 1283 1285 1287 1289 1291 1292 1293 1294 1294 1295 1296 1297 1299 1300 1302 1302 1303 1303 1303 1304 1304 1305 1305 1305 1306 1306 1306 1306 1306 1306 1306 1307 1307 1307 1308 1308 1309 1309 1310 1310 1310 1311
1280 1280 1279 1278 1277 1276 1275 1274 1274 1273 1273 1273 1273 1273 1272 1271 1271 1270 1269 1268 1268 1268 1267 1267 1266 1265 1265 1265 1264 1265 1267 1269 1270 1270 1271 1271 1272 1272 1272 1273 1274 1275 1276 1277 1280 1282 1285 1287 1288 1289 1290 1291 1292 1292 1293 1295 1297 1298 1299 1300 1300 1301 1301 1301 1302 1302 1302 1302 1303 1303 1303 1303 1303 1304 1304 1304 1305 1305 1306 1306 1307 1307 1307 1308 1308 1308
1277 1275 1275 1275 1274 1273 1271 1271 1271 1271 1270 1270 1270 1270 1269 1268 1267 1266 1265 1264 1264 1264 1264 1263 1262 1261 1261 1262 1261 1261 1262 1265 1266 1267 1267 1268 1268 1268 1268 1270 1271 1272 1273 1275 1277 1280 1282 1284 1286 1287 1287 1288 1289 1290 1292 1293 1294 1295 1296 1297 1298 1298 1299 1299 1299 1299 1300 1300 1300 1300 1300 1301 1301 1301 1302 1302 1302 1303 1304 1304 1305 1305 1306 1306 1306 1306
1274 1272 1271 1271 1271 1269 1268 1267 1267 1267 1267 1267 1267 1266 1264 1264 1263 1262 1261 1261 1261 1260 1260 1259 1258 1258 1259 1259 1258 1257 1258 1260 1262 1262 1263 1265 1264 1264 1265 1266 1267 1269 1270 1272 1275 1278 1280 1282 1283 1284 1285 1286 1287 1288 1290 1291 1292 1293 1294 1295 1295 1296 1296 1296 1297 1297 1297 1297 1297 1298 1298 1298 1299 1299 1300 1300 1301 1301 1302 1302 1303 1303 1303 1304 1304 1304
1271 1269 1268 1267 1267 1266 1265 1264 1263 1262 1262 1262 1262 1262 1261 1260 1259 1258 1257 1257 1257 1256 1256 1256 1256 1255 1256 1255 1255 1255 1255 1256 1258 1259 1260 1261 1261 1261 1262 1263 1265 1267 1269 1271 1273 1276 1278 1279 1280 1281 1282 1283 1285 1287 1288 1289 1290 1291 1292 1292 1293 1293 1293 1294 1294 1294 1295 1295 1295 1295 1296 1296 1297 1297 1298 1298 1299 1299 1300 1300 1301 1301 1301 1302 1302 1302
1267 1266 1265 1264 1263 1262 1261 1260 1260 1259 1258 1258 1258 1257 1257 1257 1256 1255 1255 1254 1254 1253 1253 1253 1252 1252 1252 1252 1252 1252 1252 1253 1254 1255 1256 1257 1258 1258 1259 1261 1263 1265 1267 1270 1272 1274 1275 1277 1277 1279 1280 1282 1283 1284 1286 1287 1287 1288 1289 1290 1290 1291 1291 1291 1292 1292 1292 1292 1293 1293 1294 1294 1295 1295 1296 1296 1297 1297 1298 1298 1298 1299 1299 1299 1299 1300
1264 1262 1261 1260 1259 1258 1258 1257 1257 1256 1255 1255 1254 1254 1254 1253 1253 1252 1252 1252 1251 1251 1250 1249 1249 1248 1248 1248 1249 1249 1249 1250 1251 1251 1252 1254 1255 1256 1257 1260 1262 1264 1267 1268 1270 1272 1273 1274 1275 1276 1278 1280 1281 1282 1283 1284 1285 1286 1287 1287 1288 1288 1288 1289 1289 1290 1290 1290 1291 1291 1292 1292 1292 1293 1294 1294 1295 1295 1296 1296 1296 1297 1297 1297 1297 1297
1260 1259 1257 1257 1256 1255 1254 1253 1253 1252 1252 1252 1251 1251 1251 1251 1250 1250 1249 1248 1248 1247 1247 1246 1246 1245 1245 1245 1246 1246 1247 1247 1247 1248 1249 1251 1252 1254 1256 1258 1261 1263 1265 1267 1268 1269 1270 1271 1272 1274 1276 1277 1279 1280 1281 1282 1282 1283 1284 1285 1285 1286 1286 1287 1287 1287 1288 1288 1288 1289 1289 1290 1291 1291 1292 1292 1292 1293 1293 1294 1294 1294 1294 1294 1295 1295
1256 1255 1253 1252 1252 1251 1250 1249 1249 1248 1248 1248 1248 1248 1247 1247 1247 1246 1245 1244 1244 1244 1243 1243 1242 1242 1242 1242 1242 1243 1243 1244 1244 1245 1247 1248 1250 1252 1254 1257 1260 1262 1264 1265 1266 1267 1268 1269 1270 1272 1273 1275 1277 1278 1279 1279 1280 1281 1282 1282 1283 1283 1284 1284 1284 1285 1285 1286 1286 1287 1287 1288 1288 1289 1289 1290 1290 1291 1291 1291 1292 1292 1292 1292 1292 1292
1251 1250 1249 1248 1247 1247 1246 1245 1245 1244 1244 1244 1244 1244 1244 1243 1243 1242 1241 1241 1241 1240 1240 1239 1239 1239 1239 1239 1239 1239 1240 1240 1241 1242 1244 1246 1248 1250 1253 1256 1258 1261 1262 1263 1264 1265 1266 1267 1268 1270 1272 1273 1275 1276 1276 1277 1278 1279 1279 1280 1280 1281 1281 1282 1282 1283 1283 1284 1284 1285 1285 1286 1286 1287 1287 1287 1288 1288 1289 1289 1289 1290 1290 1290 1290 1290
1247 1246 1245 1244 1243 1242 1242 1241 1240 1240 1240 1240 1241 1241 1239 1239 1239 1238 1237 1238 1238 1237 1236 1236 1236 1236 1236 1236 1236 1237 1237 1237 1238 1240 1242 1244 1247 1249 1252 1255 1257 1258 1260 1261 1262 1263 1264 1265 1266 1267 1269 1271 1272 1273 1274 1275 1276 1276 1277 1277 1278 1278 1279 1280 1280 1281 1281 1282 1282 1282 1283 1283 1284 1284 1285 1285 1286 1286 1287 1287 1288 1288 1288 1288 1287 1287
1243 1242 1241 1240 1239 1238 1237 1237 1236 1236 1236 1236 1237 1236 1235 1235 1234 1235 1235 1235 1234 1234 1233 1233 1233 1233 1233 1234 1235 1235 1235 1236 1237 1239 1241 1243 1246 1248 1251 1253 1255 1256 1257 1258 1259 1261 1261 1262 1264 1266 1267 1269 1270 1271 1272 1273 1273 1274 1275 1275 1276 1276 1277 1277 1278 1278 1279 1279 1280 1280 1281 1281 1282 1282 1283 1283 1284 1284 1285 1285 1286 1286 1286 1285 1285 1285
1239 1238 1236 1235 1235 1235 1234 1233 1232 1232 1232 1232 1232 1232 1231 1231 1231 1232 1232 1231 1231 1230 1230 1230 1230 1230 1230 1231 1232 1232 1232 1233 1235 1238 1240 1242 1244 1246 1248 1250 1252 1253 1254 1255 1256 1257 1259 1260 1262 1263 1265 1267 1268 1269 1270 1270 1271 1272 1272 1273 1274 1274 1275 1275 1276 1276 1277 1277 1277 1278 1278 1279 1279 1280 1281 1281 1282 1282 1283 1283 1284 1284 1283 1283 1283 1283
1235 1234 1233 1232 1232 1231 1231 1230 1229 1229 1228 1229 1229 1229 1228 1228 1228 1228 1228 1227 1227 1227 1227 1227 1227 1227 1227 1227 1227 1228 1228 1230 1233 1236 1239 1242 1243 1245 1247 1248 1250 1251 1252 1253 1254 1255 1257 1258 1259 1261 1263 1264 1266 1267 1267 1268 1269 1270 1271 1271 1272 1272 1273 1273 1274 1274 1275 1275 1275 1276 1276 1277 1277 1278 1278 1279 1279 1280 1281 1281 1281 1281 1281 1281 1281 1281
1232 1231 1230 1229 1228 1228 1227 1227 1226 1226 1225 1226 1226 1225 1225 1225 1225 1225 1225 1224 1224 1224 1224 1224 1224 1224 1224 1225 1226 1226 1227 1229 1232 1235 1238 1240 1242 1243 1245 1246 1247 1249 1250 1252 1253 1254 1255 1256 1257 1259 1261 1262 1263 1264 1265 1266 1267 1268 1269 1269 1270 1271 1271 1272 1272 1272 1272 1273 1273 1274 1274 1275 1275 1276 1276 1277 1277 1277 1278 1278 1279 1279 1279 1278 1278 1278
1229 1228 1227 1226 1225 1225 1224 1224 1223 1223 1223 1222 1222 1222 1222 1222 1222 1222 1222 1222 1222 1222 1222 1222 1222 1222 1222 1223 1225 1226 1227 1229 1232 1235 1237 1238 1240 1241 1242 1244 1245 1247 1248 1249 1251 1252 1253 1254 1255 1257 1258 1260 1261 1262 1264 1265 1266 1267 1267 1267 1268 1268 1269 1270 1270 1270 1271 1271 1271 1272 1272 1272 1273 1273 1274 1274 1274 1275 1275 1276 1276 1276 1276 1276 1276 1276
1227 1226 1225 1224 1223 1222 1222 1221 1221 1221 1220 1220 1220 1219 1219 1219 1219 1219 1219 1219 1219 1219 1220 1220 1220 1221 1222 1222 1224 1225 1227 1229 1232 1234 1236 1237 1238 1239 1241 1242 1243 1244 1246 1247 1248 1250 1251 1252 1254 1255 1257 1258 1260 1261 1262 1263 1264 1264 1265 1265 1266 1267 1267 1267 1268 1268 1268 1269 1269 1269 1270 1270 1271 1271 1271 1272 1272 1272 1273 1273 1273 1274 1274 1274 1274 1274
1224 1223 1222 1222 1221 1221 1220 1219 1219 1218 1218 1217 1217 1217 1217 1217 1217 1217 1217 1217 1217 1217 1218 1219 1220 1221 1222 1223 1224 1225 1227 1229 1231 1233 1235 1236 1237 1238 1239 1241 1242 1243 1244 1246 1247 1248 1250 1251 1253 1254 1256 1257 1258 1259 1260 1261 1262 1262 1263 1263 1264 1264 1265 1265 1266 1266 1266 1267 1267 1267 1268 1268 1268 1269 1269 1270 1270 1270 1271 1271 1271 1272 1272 1272 1272 1272
1222 1221 1220 1220 1219 1218 1218 1217 1217 1216 1216 1215 1215 1215 1214 1214 1214 1214 1215 1215 1216 1216 1217 1217 1218 1220 1222 1224 1225 1227 1228 1230 1231 1232 1234 1235 1237 1237 1238 1240 1241 1242 1243 1245 1246 1247 1249 1250 1252 1253 1254 1255 1256 1257 1258 1259 1260 1260 1261 1262 1262 1262 1263 1263 1264 1264 1264 1265 1265 1265 1266 1266 1266 1267 1267 1267 1268 1268 1268 1269 1269 1269 1270 1270 1270 1270
1220 1219 1218 1217 1217 1216 1216 1215 1214 1214 1214 1213 1213 1213 1213 1213 1213 1213 1213 1214 1214 1215 1216 1217 1218 1220 1222 1224 1226 1227 1229 1230 1231 1232 1233 1234 1236 1237 1238 1240 1241 1242 1243 1245 1246 1247 1248 1249 1250 1251 1252 1253 1254 1256 1257 1257 1258 1259 1259 1260 1261 1261 1261 1262 1262 1262 1262 1262 1263 1263 1263 1264 1264 1264 1265 1265 1265 1266 1266 1267 1267 1267 1267 1268 1268 1268
1219 1217 1217 1216 1215 1214 1214 1213 1213 1212 1212 1212 1212 1212 1212 1212 1212 1212 1213 1213 1214 1215 1216 1217 1218 1220 1222 1224 1225 1227 1227 1228 1229 1231 1232 1234 1235 1237 1238 1239 1241 1242 1244 1245 1246 1247 1248 1248 1249 1250 1251 1252 1253 1254 1255 1256 1257 1257 1258 1258 1259 1259 1260 1260 1260 1260 1260 1260 1261 1261 1261 1262 1262 1262 1262 1263 1263 1263 1264 1264 1265 1265 1266 1266 1266 1266
1217 1216 1215 1214 1213 1213 1212 1212 1212 1211 1211 1211 1211 1211 1211 1211 1212 1212 1212 1213 1214 1214 1216 1217 1218 1220 1222 1223 1224 1225 1226 1227 1228 1230 1232 1233 1235 1236 1238 1239 1241 1242 1244 1245 1246 1247 1247 1248 1248 1249 1250 1251 1252 1252 1253 1254 1255 1256 1256 1257 1257 1257 1257 1257 1257 1258 1258 1258 1258 1259 1259 1259 1260 1260 1260 1261 1261 1262 1262 1263 1263 1263 1263 1263 1263 1264
1216 1215 1214 1213 1212 1212 1211 1211 1211 1210 1210 1210 1210 1210 1210 1210 1211 1211 1212 1212 1213 1214 1216 1217 1218 1219 1221 1222 1223 1224 1225 1227 1228 1230 1231 1233 1234 1236 1237 1239 1241 1242 1243 1244 1245 1246 1246 1247 1247 1248 1249 1249 1250 1251 1252 1252 1253 1254 1254 1255 1255 1255 1255 1256 1256 1256 1256 1256 1257 1257 1257 1257 1258 1258 1259 1259 1260 1260 1261 1261 1261 1261 1261 1261 1261 1261
1215 1214 1212 1212 1211 1210 1210 1210 1209 1209 1209 1209 1209 1209 1209 1210 1210 1211 1211 1212 1213 1214 1215 1216 1217 1218 1220 1221 1222 1224 1225 1227 1228 1229 1231 1232 1234 1236 1237 1239 1241 1242 1243 1244 1244 1245 1245 1246 1246 1247 1247 1248 1248 1249 1250 1251 1251 1252 1252 1252 1253 1253 1253 1253 1254 1254 1254 1254 1255 1255 1256 1256 1256 1257 1257 1257 1258 1258 1258 1259 1259 1259 1259 1259 1259 1259
1214 1212 1211 1210 1210 1209 1209 1208 1208 1208 1208 1208 1208 1209 1209 1209 1210 1210 1211 1211 1212 1214 1215 1216 1217 1218 1219 1221 1222 1224 1225 1227 1228 1229 1231 1232 1234 1235 1237 1239 1240 1241 1242 1242 1243 1244 1244 1245 1245 1245 1246 1247 1247 1248 1248 1249 1250 1250 1250 1251 1251 1251 1252 1252 1252 1252 1252 1253 1253 1253 1254 1254 1254 1255 1255 1255 1256 1256 1256 1256 1257 1257 1257 1257 1257 1257
1212 1211 1210 1209 1209 1208 1207 1207 1207 1207 1207 1207 1208 1208 1209 1209 1209 1210 1211 1212 1212 1214 1215 1216 1217 1218 1219 1221 1222 1224 1225 1226 1227 1229 1230 1232 1233 1235 1237 1238 1239 1240 1241 1241 1242 1242 1243 1243 1244 1244 1245 1245 1246 1246 1247 1247 1248 1248 1248 1249 1249 1249 1250 1250 1250 1250 1251 1251 1251 1252 1252 1252 1252 1252 1252 1253 1253 1253 1254 1254 1254 1254 1254 1254 1254 1254
1211 1210 1209 1208 1207 1207 1206 1206 1206 1206 1207 1207 1207 1208 1208 1209 1209 1210 1211 1212 1213 1214 1215 1216 1217 1218 1219 1221 1222 1223 1225 1226 1227 1229 1230 1232 1233 1235 1236 1237 1238 1239 1239 1240 1241 1241 1242 1242 1243 1243 1244 1244 1244 1245 1245 1246 1246 1247 1247 1247 1247 1247 1248 1248 1248 1249 1249 1249 1249 1250 1250 1250 1250 1250 1250 1251 1251 1251 1251 1251 1252 1252 1252 1252 1252 1252
1210 1209 1208 1207 1207 1206 1206 1206 1206 1206 1206 1207 1207 1208 1208 1209 1210 1211 1212 1213 1213 1214 1215 1216 1217 1218 1219 1221 1222 1223 1224 1226 1227 1229 1231 1232 1234 1235 1236 1237 1237 1238 1238 1239 1239 1240 1241 1241 1242 1242 1242 1243 1243 1243 1244 1244 1244 1245 1245 1245 1245 1246 1246 1247 1247 1247 1247 1247 1247 1248 1248 1248 1248 1248 1248 1248 1248 1249 1249 1249 1249 1249 1249 1249 1249 1249
1209 1208 1207 1207 1206 1205 1205 1205 1205 1206 1206 1206 1207 1207 1208 1209 1210 1211 1212 1213 1214 1215 1216 1217 1218 1219 1220 1221 1222 1223 1225 1226 1228 1229 1231 1232 1233 1234 1235 1236 1236 1237 1237 1238 1238 1239 1240 1240 1241 1241 1241 1241 1242 1242 1242 1243 1243 1243 1243 1243 1244 1244 1245 1245 1245 1245 1245 1246 1246 1246 1246 1246 1246 1246 1246 1246 1246 1246 1246 1246 1247 1247 1247 1247 1247 1247
1209 1208 1207 1206 1206 1205 1205 1205 1205 1205 1206 1206 1207 1207 1209 1210 1211 1212 1212 1213 1214 1215 1216 1217 1218 1219 1220 1222 1223 1224 1226 1227 1228 1230 1231 1232 1233 1234 1235 1235 1235 1236 1236 1237 1238 1238 1239 1239 1239 1240 1240 1240 1240 1241 1241 1241 1241 1242 1242 1242 1242 1242 1243 1243 1243 1243 1244 1244 1244 1244 1244 1244 1244 1244 1244 1244 1243 1243 1243 1244 1244 1244 1244 1244 1244 1244
1208 1207 1207 1206 1205 1205 1205 1205 1205 1205 1205 1206 1207 1208 1209 1210 1211 1212 1212 1214 1215 1216 1217 1217 1218 1219 1220 1222 1223 1225 1226 1227 1229 1230 1231 1232 1233 1233 1234 1234 1235 1235 1236 1237 1237 1238 1238 1238 1238 1238 1239 1239 1239 1239 1239 1240 1240 1240 1240 1240 1241 1241 1241 1242 1242 1242 1242 1242 1242 1242 1242 1242 1242 1242 1242 1241 1241 1240 1240 1241 1241 1241 1242 1242 1242 1242
1208 1207 1207 1206 1205 1205 1205 1205 1205 1205 1205 1206 1207 1208 1209 1210 1211 1212 1213 1214 1215 1216 1217 1217 1218 1220 1221 1222 1224 1225 1226 1227 1229 1230 1231 1232 1232 1233 1233 1234 1234 1235 1236 1236 1236 1237 1237 1237 1237 1237 1237 1237 1237 1237 1238 1238 1238 1238 1239 1239 1239 1239 1240 1240 1240 1240 1240 1241 1241 1241 1241 1240 1240 1240 1239 1239 1238 1237 1237 1237 1237 1238 1239 1239 1239 1239
1208 1207 1207 1206 1205 1205 1205 1205 1205 1205 1205 1206 1207 1208 1209 1210 1211 1212 1213 1214 1215 1216 1217 1218 1219 1221 1222 1223 1224 1225 1226 1227 1229 1230 1231 1232 1232 1232 1233 1233 1234 1234 1234 1235 1235 1235 1235 1235 1236 1236 1236 1236 1236 1237 1237 1237 1237 1237 1237 1237 1237 1238 1238 1238 1238 1238 1238 1238 1238 1238 1238 1238 1238 1237 1237 1236 1236 1235 1234 1234 1234 1235 1236 1236 1236 1236